Flag for Germany Weather past 2 weeks in Augsburg, Bavaria, Germany

Now
64 °F

Scattered clouds.


Feels Like: 64 °F
Forecast: 51 / 65 °F
Wind: 6 mph from North

Location: Augsburg Airport

Current Time: Oct 1, 2014 at 5:19:37 PM

Latest Report: Oct 1, 2014 at 4:50 PM


Visibility: N/A

Pressure: 30.30 "Hg

Humidity: 73%

Dew point: 55 °F

Location of AugsburgLocation

Historic Weather in Augsburg — Graph

°F

Augsburg temperature yesterday

Maximum temperature yesterday: 68 °F (at 2:20 PM)
Minimum temperature yesterday: 54 °F (at 7:50 AM)
Average temperature yesterday: 62 °F

Past Weeks' High & Low Weather Summary

 TemperatureHumidityPressure
High77 °F (Sep 19, 2:20 PM)100% (Sep 16, 7:50 PM)30.39 "Hg (Sep 16, 7:50 PM)
Low34 °F (Sep 24, 7:20 AM)44% (Sep 19, 2:50 PM)29.89 "Hg (Sep 24, 4:50 PM)
Average59 °F83%30.13 "Hg
* Reported Sep 16 4:20 PM — Oct 1 4:20 PM, Augsburg, Weather by CustomWeather, © 2014

Note: Actual official high and low records may vary slightly from our data, if they occured in-between our weather recording intervals... More about our weather records

Advertising

Augsburg weather history for previous 24 hours

 ConditionsComfort  
Time TempWeatherWind HumidityBarometerVisibility
4:20 PM
Oct 1
68 °FScattered clouds.7 mph64%30.30 "HgN/A
3:50 PM68 °FScattered clouds.3 mph60%30.30 "HgN/A
3:20 PM64 °FScattered clouds.5 mph73%30.30 "HgN/A
2:50 PM70 °FScattered clouds.2 mph60%30.30 "HgN/A
2:20 PM66 °FScattered clouds.2 mph64%30.30 "HgN/A
1:50 PM66 °FPartly sunny.1 mph68%30.33 "HgN/A
1:20 PM64 °FBroken clouds.6 mph88%30.33 "HgN/A
12:50 PM64 °FBroken clouds.3 mph78%30.33 "HgN/A
12:20 PM63 °FPartly sunny.5 mph88%30.33 "HgN/A
11:50 AM61 °FBroken clouds.6 mph100%30.33 "Hg3 mi
11:20 AM61 °FFog.5 mph100%30.33 "Hg2 mi
10:50 AM59 °FFog.7 mph100%30.33 "Hg1 mi
10:20 AM59 °FFog.6 mph100%30.33 "Hg1 mi
9:50 AM59 °FFog.6 mph100%30.33 "Hg1 mi
9:20 AM59 °FFog.5 mph100%30.33 "Hg1 mi
8:50 AM57 °FFog.6 mph100%30.30 "Hg1 mi
8:20 AM59 °FFog.5 mph100%30.30 "Hg1 mi
7:50 AM59 °FFog.2 mph100%30.30 "Hg1 mi
7:20 AM59 °FFog.3 mph100%30.30 "Hg1 mi
6:50 AM59 °FFog.3 mph100%30.30 "Hg1 mi
6:20 AM59 °FFog.3 mph100%30.30 "Hg1 mi
5:50 AM59 °FFog.2 mph100%30.30 "Hg1 mi
8:50 PM
Sep 30
61 °FLight rain. Partly cloudy.3 mph100%30.33 "HgN/A
8:20 PM61 °FPassing clouds.3 mph100%30.33 "HgN/A
7:50 PM61 °FDrizzle. Partly sunny.2 mph100%30.30 "HgN/A
7:20 PM61 °FDrizzle. Partly sunny.2 mph100%30.30 "HgN/A
6:50 PM63 °FDrizzle. Partly sunny.3 mph94%30.30 "HgN/A
6:20 PM63 °FDrizzle. Partly sunny.3 mph100%30.30 "HgN/A
5:50 PM66 °FLight rain. Partly sunny.1 mph73%30.30 "HgN/A
5:20 PM66 °FDrizzle. Partly sunny.2 mph68%30.30 "HgN/A
Weather by CustomWeather, © 2014

See weather overviewHow to use our weather pages